SAS9110 ESSA-ESNN

Flight info

Callsign SAS9110
Flight time N/A
Altitude 27000
Route RESNA T314 ZIPCO
Aircraft A320/M-SDE3FGHIRWY/LB1

Departure

Time N/A
Airport Stockholm-Arlanda Airport (ESSA)

Arrival

Time 2026-05-06 16:25
Airport Sundsvall-Härnösand Airport (ESNN)
Time Latitude Longitude Altitude Speed Heading
2026-05-06 15:31 60.36178 17.63759 23224 ft 426 kts 344°
2026-05-06 15:31 60.39139 17.63082 23639 ft 430 kts 344°
2026-05-06 15:31 60.42120 17.62401 23992 ft 433 kts 344°
2026-05-06 15:32 60.48156 17.61011 24703 ft 439 kts 344°
2026-05-06 15:32 60.51204 17.60299 25046 ft 442 kts 344°
2026-05-06 15:32 60.54232 17.59590 25382 ft 445 kts 344°
2026-05-06 15:32 60.57324 17.58859 25709 ft 448 kts 343°
2026-05-06 15:33 60.60427 17.58124 26038 ft 451 kts 343°
2026-05-06 15:33 60.63562 17.57387 26363 ft 454 kts 343°
2026-05-06 15:33 60.66712 17.56653 26690 ft 457 kts 343°
2026-05-06 15:33 60.69882 17.55910 26936 ft 460 kts 343°
2026-05-06 15:34 60.73072 17.55157 26992 ft 463 kts 343°
2026-05-06 15:34 60.76279 17.54405 26991 ft 463 kts 343°
2026-05-06 15:34 60.79480 17.53653 27008 ft 463 kts 343°
2026-05-06 15:34 60.82680 17.52899 26989 ft 463 kts 343°
2026-05-06 15:35 60.85885 17.52143 26988 ft 463 kts 343°
2026-05-06 15:35 60.89040 17.51395 26988 ft 463 kts 343°
2026-05-06 15:35 60.92240 17.50635 26988 ft 463 kts 343°
2026-05-06 15:35 60.95439 17.49872 26990 ft 462 kts 343°
2026-05-06 15:36 60.98631 17.49102 26986 ft 462 kts 343°
2026-05-06 15:36 61.01827 17.48330 27029 ft 462 kts 343°
2026-05-06 15:36 61.05019 17.47559 27023 ft 462 kts 343°
2026-05-06 15:36 61.08216 17.46787 27013 ft 462 kts 343°
2026-05-06 15:37 61.11404 17.46010 27022 ft 461 kts 343°
2026-05-06 15:37 61.14585 17.45240 26981 ft 459 kts 343°
2026-05-06 15:37 61.17756 17.44476 26975 ft 458 kts 343°
2026-05-06 15:37 61.20923 17.43713 26972 ft 458 kts 343°
2026-05-06 15:38 61.24088 17.42948 26969 ft 458 kts 343°
2026-05-06 15:38 61.27254 17.42183 26969 ft 458 kts 343°
2026-05-06 15:38 61.30421 17.41415 26967 ft 458 kts 343°
2026-05-06 15:38 61.33588 17.40639 26967 ft 458 kts 343°
2026-05-06 15:39 61.36755 17.39860 26969 ft 458 kts 343°
2026-05-06 15:39 61.39927 17.39080 26970 ft 458 kts 343°
2026-05-06 15:39 61.43093 17.38301 27005 ft 458 kts 342°
2026-05-06 15:39 61.46219 17.37526 26995 ft 458 kts 342°
2026-05-06 15:40 61.49380 17.36739 26993 ft 458 kts 342°
2026-05-06 15:40 61.52543 17.35953 26943 ft 458 kts 342°
2026-05-06 15:40 61.55694 17.35176 26682 ft 455 kts 342°
2026-05-06 15:40 61.58831 17.34400 26417 ft 452 kts 342°
2026-05-06 15:41 61.61950 17.33627 26158 ft 450 kts 342°
2026-05-06 15:41 61.65039 17.32862 25651 ft 445 kts 342°
2026-05-06 15:41 61.68106 17.32100 25015 ft 442 kts 342°
2026-05-06 15:41 61.71152 17.31334 24395 ft 439 kts 342°
2026-05-06 15:42 61.74169 17.30568 23847 ft 435 kts 341°
2026-05-06 15:42 61.77174 17.29804 23079 ft 434 kts 341°
2026-05-06 15:42 61.80146 17.29057 22503 ft 426 kts 342°
2026-05-06 15:42 61.83063 17.28331 21930 ft 419 kts 342°
2026-05-06 15:43 61.85936 17.27619 21382 ft 412 kts 342°
2026-05-06 15:43 61.88765 17.26911 20853 ft 406 kts 342°
2026-05-06 15:43 61.91552 17.26203 20345 ft 401 kts 342°
2026-05-06 15:43 61.94310 17.25494 19840 ft 397 kts 343°
2026-05-06 15:44 61.97041 17.24785 19337 ft 393 kts 343°
2026-05-06 15:44 61.99745 17.24082 18848 ft 390 kts 343°
2026-05-06 15:44 62.02430 17.23385 18328 ft 388 kts 344°
2026-05-06 15:44 62.05102 17.22695 17759 ft 385 kts 344°
2026-05-06 15:45 62.07744 17.22013 17231 ft 381 kts 346°
2026-05-06 15:45 62.10327 17.21346 16709 ft 377 kts 347°
2026-05-06 15:45 62.12924 17.20675 16177 ft 373 kts 347°
2026-05-06 15:45 62.15500 17.20009 15635 ft 369 kts 348°
2026-05-06 15:46 62.18040 17.19353 15095 ft 366 kts 348°
2026-05-06 15:46 62.20557 17.18704 14551 ft 362 kts 349°
2026-05-06 15:46 62.23048 17.18055 14020 ft 359 kts 349°
2026-05-06 15:46 62.25513 17.17410 13660 ft 349 kts 349°
2026-05-06 15:47 62.27854 17.16807 13113 ft 333 kts 350°
2026-05-06 15:47 62.30135 17.16216 12432 ft 328 kts 350°
2026-05-06 15:47 62.32372 17.15627 11932 ft 327 kts 350°
2026-05-06 15:47 62.34628 17.15029 11441 ft 328 kts 350°
2026-05-06 15:48 62.36892 17.14426 10929 ft 327 kts 350°
2026-05-06 15:48 62.39135 17.13829 10639 ft 320 kts 351°
2026-05-06 15:48 62.41309 17.13373 10536 ft 308 kts 353°
2026-05-06 15:48 62.43407 17.13114 10438 ft 297 kts 354°
2026-05-06 15:49 62.45441 17.12936 10321 ft 289 kts 355°
2026-05-06 15:49 62.47441 17.12775 10192 ft 287 kts 355°
2026-05-06 15:49 62.49434 17.12604 10069 ft 286 kts 355°
2026-05-06 15:49 62.51430 17.12414 9830 ft 289 kts 354°
2026-05-06 15:50 62.53475 17.12201 9143 ft 298 kts 354°
2026-05-06 15:50 62.55548 17.11980 8573 ft 295 kts 354°
2026-05-06 15:50 62.57546 17.11772 8043 ft 288 kts 355°
2026-05-06 15:50 62.59525 17.11567 7512 ft 281 kts 354°
2026-05-06 15:51 62.61463 17.11365 6996 ft 276 kts 354°
2026-05-06 15:51 62.63368 17.11158 6488 ft 271 kts 355°
2026-05-06 15:51 62.65239 17.10950 5973 ft 268 kts 354°
2026-05-06 15:51 62.67087 17.10741 5473 ft 262 kts 354°
2026-05-06 15:52 62.68884 17.10613 5101 ft 253 kts
2026-05-06 15:52 62.70546 17.11516 5056 ft 246 kts 22°
2026-05-06 15:52 62.71944 17.13649 4986 ft 248 kts 45°
2026-05-06 15:52 62.72868 17.16692 4858 ft 234 kts 67°
2026-05-06 15:53 62.73409 17.19955 4755 ft 227 kts 69°
2026-05-06 15:53 62.73902 17.23219 4636 ft 226 kts 81°
2026-05-06 15:53 62.73677 17.26532 4527 ft 222 kts 122°
2026-05-06 15:53 62.72614 17.28778 4402 ft 215 kts 159°
2026-05-06 15:54 62.71225 17.29931 4125 ft 214 kts 165°
2026-05-06 15:54 62.69811 17.31014 3809 ft 216 kts 164°
2026-05-06 15:54 62.68395 17.32124 3490 ft 216 kts 165°
2026-05-06 15:54 62.66976 17.33245 3166 ft 218 kts 164°
2026-05-06 15:55 62.65545 17.34376 2842 ft 217 kts 164°
2026-05-06 15:55 62.64148 17.35482 2510 ft 210 kts 163°
2026-05-06 15:55 62.62800 17.36547 2230 ft 201 kts 164°
2026-05-06 15:55 62.61509 17.37564 1904 ft 193 kts 163°
2026-05-06 15:56 62.60320 17.38504 1625 ft 171 kts 165°
2026-05-06 15:56 62.59268 17.39334 1378 ft 154 kts 165°
2026-05-06 15:56 62.58287 17.40103 1146 ft 145 kts 165°
2026-05-06 15:56 62.57353 17.40834 947 ft 140 kts 162°
2026-05-06 15:57 62.56464 17.41530 736 ft 135 kts 160°
2026-05-06 15:57 62.55597 17.42196 527 ft 131 kts 157°
2026-05-06 15:57 62.54742 17.42909 271 ft 132 kts 158°
2026-05-06 15:57 62.53863 17.43558 121 ft 133 kts 158°
2026-05-06 15:58 62.53007 17.44238 29 ft 121 kts 156°
2026-05-06 15:58 62.52194 17.44871 61 ft 141 kts 161°
2026-05-06 15:58 62.51273 17.45496 764 ft 139 kts 161°
2026-05-06 15:58 62.50338 17.46229 1580 ft 137 kts 159°
2026-05-06 15:59 62.49489 17.47103 2026 ft 141 kts 158°
2026-05-06 15:59 62.48538 17.48092 2215 ft 160 kts 158°
2026-05-06 15:59 62.47482 17.49145 2481 ft 174 kts 159°
2026-05-06 15:59 62.46306 17.50264 2686 ft 197 kts 160°
2026-05-06 16:00 62.44983 17.51483 2963 ft 217 kts 160°
2026-05-06 16:00 62.43479 17.52830 3055 ft 251 kts 161°
2026-05-06 16:00 62.41827 17.54306 3044 ft 260 kts 161°
2026-05-06 16:00 62.40082 17.55044 3017 ft 254 kts 188°
2026-05-06 16:01 62.38440 17.53870 3015 ft 249 kts 217°
2026-05-06 16:01 62.37324 17.51115 3007 ft 246 kts 246°
2026-05-06 16:01 62.37018 17.47527 3012 ft 246 kts 273°
2026-05-06 16:01 62.37206 17.43860 3007 ft 247 kts 277°
2026-05-06 16:02 62.37464 17.40202 3007 ft 245 kts 278°
2026-05-06 16:02 62.37969 17.36772 3003 ft 247 kts 301°
2026-05-06 16:02 62.39225 17.34165 3010 ft 251 kts 326°
2026-05-06 16:02 62.40841 17.32859 3010 ft 255 kts 346°
2026-05-06 16:03 62.42587 17.32042 3007 ft 257 kts 343°
2026-05-06 16:03 62.44302 17.31029 3010 ft 255 kts 341°
2026-05-06 16:03 62.46009 17.29984 3009 ft 255 kts 341°
2026-05-06 16:03 62.47717 17.28930 3010 ft 256 kts 341°
2026-05-06 16:04 62.49431 17.27868 3008 ft 257 kts 341°
2026-05-06 16:04 62.51147 17.26798 3005 ft 256 kts 341°
2026-05-06 16:04 62.52857 17.25740 3009 ft 255 kts 341°
2026-05-06 16:04 62.54568 17.24668 3008 ft 255 kts 341°
2026-05-06 16:05 62.56274 17.23601 3007 ft 255 kts 341°
2026-05-06 16:05 62.57955 17.22554 2998 ft 254 kts 341°
2026-05-06 16:05 62.59650 17.21514 2995 ft 248 kts 341°
2026-05-06 16:05 62.61264 17.20515 2993 ft 236 kts 341°
2026-05-06 16:06 62.62837 17.19528 2994 ft 235 kts 341°
2026-05-06 16:06 62.64412 17.18567 2995 ft 235 kts 348°
2026-05-06 16:06 62.66039 17.18910 2998 ft 240 kts 20°
2026-05-06 16:06 62.67323 17.21038 2993 ft 229 kts 54°
2026-05-06 16:07 62.68025 17.24005 2996 ft 213 kts 66°
2026-05-06 16:07 62.68556 17.26919 3037 ft 204 kts 69°
2026-05-06 16:07 62.68703 17.29922 2984 ft 202 kts 107°
2026-05-06 16:07 62.68273 17.31685 2990 ft 199 kts 137°
2026-05-06 16:08 62.67122 17.33165 3004 ft 192 kts 165°
2026-05-06 16:08 62.65862 17.34143 2855 ft 191 kts 165°
2026-05-06 16:08 62.64611 17.35119 2602 ft 191 kts 164°
2026-05-06 16:08 62.63376 17.36092 2323 ft 184 kts 165°
2026-05-06 16:09 62.62201 17.37020 2055 ft 175 kts 165°
2026-05-06 16:09 62.61088 17.37897 1834 ft 164 kts 165°
2026-05-06 16:09 62.60050 17.38716 1558 ft 154 kts 166°
2026-05-06 16:09 62.59061 17.39493 1332 ft 148 kts 164°
2026-05-06 16:10 62.58110 17.40239 1113 ft 143 kts 163°
2026-05-06 16:10 62.57188 17.40962 904 ft 138 kts 161°
2026-05-06 16:10 62.56304 17.41655 697 ft 133 kts 160°
2026-05-06 16:10 62.55436 17.42335 489 ft 132 kts 158°
2026-05-06 16:11 62.54580 17.43006 310 ft 132 kts 157°
2026-05-06 16:11 62.53723 17.43682 101 ft 130 kts 158°
2026-05-06 16:11 62.52879 17.44300 111 ft 131 kts 158°
2026-05-06 16:11 62.51961 17.44996 732 ft 142 kts 158°
2026-05-06 16:12 62.51114 17.45747 1614 ft 127 kts 158°
2026-05-06 16:12 62.50311 17.46713 2082 ft 137 kts 154°
2026-05-06 16:12 62.49494 17.47850 2357 ft 147 kts 154°
2026-05-06 16:12 62.48562 17.49008 2487 ft 162 kts 156°
2026-05-06 16:13 62.47504 17.50209 2579 ft 184 kts 156°
2026-05-06 16:13 62.46308 17.51472 2806 ft 197 kts 159°
2026-05-06 16:13 62.45035 17.52716 2991 ft 206 kts 159°
2026-05-06 16:13 62.43643 17.54027 2990 ft 232 kts 159°
2026-05-06 16:14 62.42066 17.55428 3010 ft 255 kts 166°
2026-05-06 16:14 62.40314 17.55634 3013 ft 253 kts 196°
2026-05-06 16:14 62.38776 17.53953 3007 ft 248 kts 225°
2026-05-06 16:14 62.37862 17.50859 3008 ft 245 kts 255°
2026-05-06 16:15 62.37765 17.47238 3009 ft 244 kts 275°
2026-05-06 16:15 62.37986 17.43610 3006 ft 245 kts 278°
2026-05-06 16:15 62.38258 17.39960 3006 ft 247 kts 282°
2026-05-06 16:15 62.38952 17.36609 3002 ft 248 kts 308°
2026-05-06 16:16 62.40347 17.34407 3012 ft 254 kts 333°
2026-05-06 16:16 62.42000 17.33039 3007 ft 254 kts 338°
2026-05-06 16:16 62.43670 17.31809 3010 ft 254 kts 338°
2026-05-06 16:16 62.45325 17.30583 3006 ft 254 kts 338°
2026-05-06 16:17 62.47003 17.29325 3007 ft 256 kts 339°
2026-05-06 16:17 62.48683 17.28048 3006 ft 256 kts 338°
2026-05-06 16:17 62.50365 17.26772 3008 ft 256 kts 338°
2026-05-06 16:17 62.52043 17.25525 3008 ft 255 kts 338°
2026-05-06 16:18 62.53719 17.24278 3008 ft 254 kts 338°
2026-05-06 16:18 62.55394 17.23040 3005 ft 254 kts 339°
2026-05-06 16:18 62.57066 17.21784 3007 ft 254 kts 338°
2026-05-06 16:18 62.58735 17.20531 2998 ft 254 kts 338°
2026-05-06 16:19 62.60401 17.19254 2999 ft 254 kts 338°
2026-05-06 16:19 62.62026 17.18021 2993 ft 240 kts 338°
2026-05-06 16:19 62.63590 17.16938 2991 ft 236 kts 347°
2026-05-06 16:19 62.65225 17.17275 2996 ft 242 kts 20°
2026-05-06 16:20 62.66567 17.19461 2999 ft 247 kts 52°
2026-05-06 16:20 62.67367 17.22764 3000 ft 247 kts 66°
2026-05-06 16:20 62.67995 17.26181 2999 ft 241 kts 68°
2026-05-06 16:20 62.68511 17.29546 2984 ft 229 kts 81°
2026-05-06 16:21 62.68244 17.32835 2989 ft 217 kts 126°
2026-05-06 16:21 62.67134 17.34661 2979 ft 195 kts 173°
2026-05-06 16:21 62.65820 17.34761 2844 ft 188 kts 181°
2026-05-06 16:21 62.64567 17.35273 2920 ft 178 kts 165°
2026-05-06 16:22 62.63412 17.36193 2631 ft 181 kts 162°
2026-05-06 16:22 62.62195 17.37158 2293 ft 185 kts 165°
2026-05-06 16:22 62.61001 17.38087 1897 ft 183 kts 166°
2026-05-06 16:22 62.59785 17.38998 1416 ft 184 kts 164°
2026-05-06 16:23 62.58650 17.39894 1244 ft 160 kts 163°
2026-05-06 16:23 62.57641 17.40642 946 ft 146 kts 161°
2026-05-06 16:23 62.56722 17.41367 732 ft 135 kts 159°
2026-05-06 16:23 62.55865 17.41983 593 ft 130 kts 158°
2026-05-06 16:24 62.55014 17.42649 382 ft 130 kts 156°
2026-05-06 16:24 62.54170 17.43340 181 ft 128 kts 156°
2026-05-06 16:24 62.53332 17.43977 40 ft 125 kts 155°
2026-05-06 16:24 62.52661 17.44518 21 ft 67 kts 161°
2026-05-06 16:25 62.52445 17.44658 22 ft 17 kts 171°
2026-05-06 16:25 62.52417 17.44711 22 ft 2 kts 32°
2026-05-06 16:25 62.52476 17.44669 22 ft 18 kts 338°
2026-05-06 16:25 62.52614 17.44550 21 ft 23 kts 339°
2026-05-06 16:26 62.52744 17.44436 21 ft 16 kts 325°
2026-05-06 16:26 62.52747 17.44224 23 ft 15 kts 250°
2026-05-06 16:26 62.52734 17.44148 23 ft 1 kts 250°
2026-05-06 16:26 62.52723 17.44085 23 ft 8 kts 249°
2026-05-06 16:27 62.52705 17.43947 23 ft 10 kts 277°
2026-05-06 16:27 62.52729 17.43839 23 ft 6 kts 285°
2026-05-06 16:27 62.52722 17.43772 23 ft 3 kts 252°
2026-05-06 16:27 62.52719 17.43749 23 ft 0 kts 251°